Regional Weather Roundup
Issued by NWS Sterling, VA

Home | Current Version | Previous Version | Text Only | Print | Product List | Glossary Off
Versions: 1 2 3 4 5 6 7 8 9 10 11 12 13 14 15 16 17 18 19 20 21 22 23 24 25 26 27

000
ASUS41 KLWX 200411
RWRLWX

REGIONAL WEATHER ROUNDUP
NATIONAL WEATHER SERVICE BALTIMORE MD/WASHINGTON DC
1100 PM EST SUN FEB 19 2017

Note: "FAIR" indicates few or no clouds below 12,000 feet
with no significant weather and/or obstructions to visibility.
 TC=TEMPERATURE CELSIUS

 * =Non NWS site. Station does not report precipitation (e.g. rain,
    snow, etc.), thunder, or fog.

DCZ001-MDZ009-015-VAZ040>042-051-053>054-200500-
WASHINGTON METRO

CITY           SKY/WX    TMP DP  RH WIND       PRES   REMARKS
WASHINGTON NAT PTCLDY    58  42  55 NW8       30.05R
DULLES         PTCLDY    52  40  63 NW6       30.06R
ANDREWS AFB    PTCLDY    55  41  59 W8        30.03S
FT BELVOIR     CLEAR     56  42  58 NW9       30.05R
QUANTICO       CLEAR     51  42  71 E3        30.07R
COLLEGE PARK*  PTCLDY    55  39  54 CALM      30.04S
LEESBURG*      CLEAR     50  43  76 NW9       30.07R
MANASSAS*      CLEAR     49  40  71 NW10      30.06S
GAITHERSBURG*  CLEAR     54  39  58 NW13      30.08S

$$

MDZ006>007-011-014-200500-
BALTIMORE METRO

CITY           SKY/WX    TMP DP  RH WIND       PRES   REMARKS
BWI AIRPORT    PTCLDY    51  41  68 W8        30.02R
MD SCIENCE CTR   N/A     58  38  47 MISG      30.02R
ANNAPOLIS      CLEAR     50  41  71 W3        30.02R
FORT MEADE*    PTCLDY    50  39  66 CALM      30.05S

$$

MDZ012-015-019>023-200500-
MARYLAND EASTERN SHORE

CITY           SKY/WX    TMP DP  RH WIND       PRES   REMARKS
OCEAN CITY     CLEAR     55  41  59 NW7       29.99S
SALISBURY      CLEAR     56  42  59 NW10      30.01R
BAY BRIDGE AP* CLEAR     54  41  62 W7        30.02S
CAMBRIDGE*     CLEAR     54  41  62 W5        30.02R
EASTON*        CLEAR     57  40  52 NW5       30.06R

$$

MDZ017>025-200500-
SOUTHERN MARYLAND

CITY           SKY/WX    TMP DP  RH WIND       PRES   REMARKS
PATUXENT RIVER CLEAR     55  42  61 NW9       30.04R
ST INIGOES     CLEAR     57  39  51 NW7       30.04R
LEONARDTOWN*   CLEAR     57  37  47 W7        30.06R

$$

MDZ003>005-200500-
NORTH CENTRAL MARYLAND

CITY           SKY/WX    TMP DP  RH WIND       PRES   REMARKS
FREDERICK*     CLEAR     54  45  71 W9        30.07S
HAGERSTOWN APT CLEAR     55  43  63 VRB5      30.06R
WESTMINSTER*   PTCLDY    55  43  62 NW7       30.04R

$$

MDZ501>502-200500-
WESTERN MARYLAND

CITY           SKY/WX    TMP DP  RH WIND       PRES   REMARKS
OAKLAND*       CLOUDY    41  41 100 W10G18    30.13R FOG
CUMBERLAND*    CLEAR     54  43  66 W6G16     30.15R

$$

VAZ025>031-200500-
SHENANDOAH VALLEY

CITY           SKY/WX    TMP DP  RH WIND       PRES   REMARKS
WINCHESTER*    CLEAR     52  39  62 NW9       30.08S
FRONT ROYAL*   CLEAR     52  37  58 CALM      30.08R
LURAY*         CLEAR     45  39  81 CALM      30.09S
NEW MARKET*    CLEAR     38  33  83 CALM      30.10S
STAUNTON*      CLEAR     37  32  83 CALM      30.12S
WAYNESBORO*    PTCLDY    49  38  66 W5        30.11R

$$

WVZ021-048>050-054>055-200500-
EASTERN WEST VIRGINIA PANHANDLE

CITY           SKY/WX    TMP DP  RH WIND       PRES   REMARKS
MARTINSBURG    CLEAR     55  42  61 NW12      30.07R
PETERSBURG*    CLEAR     42  38  88 CALM      30.15R

$$

VAZ036>039-050-200500-
CENTRAL FOOTHILLS

CITY           SKY/WX    TMP DP  RH WIND       PRES   REMARKS
CHARLOTTESVILL PTCLDY    61  33  35 NW6       30.07R
CULPEPER*      CLEAR     43  35  74 CALM      30.07S
ORANGE*        PTCLDY    43  34  70 CALM      30.08S
GORDONSVILLE*  CLEAR     44  37  75 CALM      30.06R
WARRENTON*     PTCLDY    43  33  67 CALM      30.06R

$$

VAZ055>057-200500-
NORTH AND CENTRAL PIEDMONT

CITY           SKY/WX    TMP DP  RH WIND       PRES   REMARKS
FREDERICKSBRG* PTCLDY    58  40  51 N3        30.06R
STAFFORD*      CLEAR     51  37  59 CALM      30.10R

$$

NCZ024-NYZ072-PAZ021-071-VAZ022-071-200500-
OTHER REGIONAL OBSERVATIONS

CITY           SKY/WX    TMP DP  RH WIND       PRES   REMARKS
NEW YORK CITY  CLEAR     55  31  39 NW6       29.99R
PHILADELPHIA   CLEAR     54  33  45 NW9       29.99R
PITTSBURGH     PTCLDY    49  42  77 SW6       30.14R
ROANOKE        CLEAR     46  39  76 NW9       30.15S
RICHMOND       PTCLDY    56  39  53 N7        30.05R
RALEIGH        CLEAR     57  41  55 NW3       30.09R

$$

ANZ530>537-200500-
MARINE OBSERVATIONS

STATION/POSITION TIME  TEMP    WIND        PRES
                       AIR SEA DIR/SP/G
                 (UTC) (F)     (DEG/KT/KT) (MB)
THOMAS PT LIGHT  0400   58 40  290/ 13/ 14   N/A
BALT KEY BRIDGE  0348   58     230/  6/  7 1016.4R
COVE POINT       0348   58     330/ 10/ 17 1017.5R
LEWISETTA        0348   58 44  340/  9/ 13 1016.8R
SOLOMONS ISLAND  0348          320/  5/  8   N/A
PINEY POINT      0348          340/  9/ 11   N/A

$$





USA.gov is the U.S. government's official web portal to all federal, state and local government web resources and services.